Regional Weather Roundup
Issued by NWS Jackson, KY

Home | Current Version | Previous Version | Graphics & Text | Print | Product List | Glossary On
Versions: 1 2 3 4 5 6 7 8 9 10 11 12 13 14 15 16 17 18 19 20 21 22 23 24 25 26 27 28 29 30 31 32 33 34 35 36 37 38 39 40 41 42 43 44 45 46 47 48 49 50
000
ASUS43 KJKL 062210
RWRJKL

EAST KENTUCKY HOURLY WEATHER ROUNDUP
NATIONAL WEATHER SERVICE JACKSON KY
600 PM EDT WED MAY 06 2015

NOTE: "FAIR" INDICATES FEW OR NO CLOUDS BELOW 12,000 FEET WITH
NO SIGNIFICANT WEATHER AND/OR OBSTRUCTIONS TO VISIBILITY.

* THESE REPORTS ARE NOT UNDER NWS QUALITY CONTROL AND MAY NOT
  REPORT WEATHER SUCH AS PRECIPITATION AND FOG.

KYZ079-080-083-085-087-088-110-112-115-119-120-062300
...EASTERN KENTUCKY...

CITY           SKY/WX    TMP DP  RH WIND       PRES   REMARKS
JACKSON        MOSUNNY   83  50  31 VRB3      30.13F
LONDON         PTSUNNY   79  53  40 SE7       30.13S
SOMERSET*      PTSUNNY   81  54  39 NE7       30.11S
MONTICELLO*    SUNNY     85  57  38 NE3       30.13F
MIDDLESBORO*   MOSUNNY   76  59  57 NE3       30.13F
HARLAN APT*    PTCLDY    79  52  38 CALM      30.14F
HAZARD APT*    PTCLDY    84  50  30 CALM      30.12F
BLACK MTN*       N/A     72  54  53 VRB5        N/A
PIKEVILLE APT* MOSUNNY   82  54  36 N5        30.13F
BIG SANDY*     CLEAR    N/A N/A N/A E5        30.12S
MOREHEAD APT*  CLEAR     84  54  34 NE5       30.14F
$$

KYZ035-036-041-042-044-050-067-078-099-062300
...CENTRAL KENTUCKY...

CITY           SKY/WX    TMP DP  RH WIND       PRES   REMARKS
MT STERLING*   SUNNY     82  54  36 NE3       30.14S
FLEMING/MASON* SUNNY     84  52  32 CALM      30.13F
DANVILLE*      MOSUNNY   82  55  39 E3        30.12F
RICHMOND*      SUNNY     84  52  32 NE7       30.11F
LEXINGTON      SUNNY     83  57  41 N7        30.12F
FRANKFORT      SUNNY     85  49  28 E5        30.11S
$$

KYZ091>093-OHZ055-061-077-WVZ005-015-034-035-042-062300
...SOUTHERN OHIO/WEST VIRGINIA...

CITY           SKY/WX    TMP DP  RH WIND       PRES   REMARKS
COVINGTON      MOSUNNY   84  53  34 CALM      30.12F
COLUMBUS       MOSUNNY   82  55  39 N8        30.11F
DAYTON         MOSUNNY   83  57  41 NE10      30.14F
WILMINGTON     SUNNY     84  49  29 CALM      30.12F
HUNTINGTON     SUNNY     85  51  31 NE6       30.10F
CHARLESTON     MOSUNNY   86  52  30 W5        30.10F
PINEVILLE*     PTSUNNY   85  53  32 MISG      30.19S
BECKLEY        MOSUNNY   80  48  32 N10       30.19S
BLUEFIELD      CLOUDY    74  50  42 W9        30.21S
$$

VAZ002-007-008-TNZ017-027-036-066-071-062300
...SOUTHWEST VIRGINIA/EAST TENNESSEE...

CITY           SKY/WX    TMP DP  RH WIND       PRES   REMARKS
WISE*          PTSUNNY   72  46  40 NE5       30.21S
JONESVILLE*    PTCLDY    82  55  39 N5        30.15S
ABINGDON*      MOSUNNY   76  54  46 SE14      30.18R
BRISTOL        PTSUNNY   69  63  81 N3        30.14S
KNOXVILLE      MOSUNNY   85  53  33 VRB3      30.08F
OAK RIDGE      MOSUNNY   87  53  31 VRB3      30.10F
CROSSVILLE     SUNNY     81  43  26 MISG      30.14F
NASHVILLE      MOSUNNY   83  51  33 CALM      30.09F
$$

...KEY TO REMARKS...
VSB - VISIBILITY IN MILES
WCI - WIND CHILL INDEX
HX  - HEAT INDEX

$$



USA.gov is the U.S. government's official web portal to all federal, state and local government web resources and services.